Portada
METAR-TAF:

METAR-TAF

Aeroports :

Hernando County Airport

Brooksville, Florida, Estats Units d'Amèrica

latitud: 28-28-25N, longitud: 082-27-16W, altitud: 23 m

Observació

L'informe es va fer fa 20 minuts, a les 20:53 UTC
Vent 12 kt del Oest
Temperatura 16°C
Humitat 42%
Pressió 1024 hPa
Visibilitat: 16.1 km
Cel clar

METAR: KBKV 282053Z 27012KT 10SM CLR 16/03 A3024 RMK AO2 SLP239 T01560028 56014

Hora: 16:13 (21:13 UTC)


TAF: manca

Observacions i pronòstics meteorològics de més de 4000 aeroports (METAR i TAF).

Les estacions disponibles són els punts grocs i vermells al mapa.

Posi el ratolí al punt desitjat per veure el nom de l'estació.

Feu clic per veure les observacions i els pronòstics meteorològics.

Per canviar el mapa: feu clic els botons verds amb una creu de color negre per apropar; al botó verd amb un guió per allunyar la imatge; o en les fletxes verdes per a mapes adjacents.


METAR-TAF: